Change the Weather History Date:

Friday, December 28, 2012

  Actual Average Record
Temperature  
Mean Temperature 20 °F -  
Max Temperature 27 °F 32 °F 63 °F (2008)
Min Temperature 12 °F 19 °F -2 °F (2000)
Degree Days  
Heating Degree Days 46    
Moisture  
Dew Point 18 °F    
Average Humidity 89    
Maximum Humidity 100    
Minimum Humidity 80    
Precipitation  
Precipitation 0.00 in - - ()
Sea Level Pressure  
Sea Level Pressure 30.09 in    
Wind  
Wind Speed 4 mph (South)    
Max Wind Speed 8 mph    
Max Gust Speed -    
Visibility 6 miles    
Events      
Averages and records for this station are not official NWS values.
T = Trace of Precipitation, MM = Missing Value Source: NWS Daily Summary

Daily Weather History Graph

Daily Weather History Graph

Search for Another Location

Airport or City:

Trip Planner

Search our weather history database for the weather conditions in past years. The results will help you decide how hot, cold, wet, or windy it might be!

Date:

Astronomy

Dec. 28, 2012 Rise Set
Actual Time 7:51 AM EST 5:07 PM EST
Civil Twilight 7:20 AM EST 5:38 PM EST
Nautical Twilight 6:45 AM EST 6:13 PM EST
Astronomical Twilight 6:12 AM EST 6:46 PM EST
Moon 5:43 PM EST (12/28) 7:44 AM EST (12/28)
Length of Visible Light 10h 18m
Length of Day
9h 16m
Full, 100% of the Moon is Illuminated
Dec 28
Full
Jan 4
Last Quarter
Jan 11
New
Jan 18
First Quarter
Jan 26
Full

Hourly Weather History & Observations

Time (EST) Temp. Windchill Dew Point Humidity Pressure Visibility Wind Dir Wind Speed Gust Speed Precip Events Conditions
12:56 AM 24.1 °F 17.0 °F 21.0 °F 88% 30.17 in 9.0 mi WSW 5.8 mph - N/A   Overcast
1:56 AM 24.1 °F 17.0 °F 21.0 °F 88% 30.16 in 10.0 mi SW 5.8 mph - N/A   Overcast
2:56 AM 24.1 °F 19.7 °F 21.0 °F 88% 30.17 in 10.0 mi West 3.5 mph - N/A   Overcast
3:56 AM 24.1 °F 18.2 °F 21.0 °F 88% 30.18 in 10.0 mi West 4.6 mph - N/A   Overcast
4:56 AM 24.1 °F - 21.0 °F 88% 30.17 in 10.0 mi Calm Calm - N/A   Overcast
5:56 AM 24.1 °F 18.2 °F 21.0 °F 88% 30.18 in 10.0 mi SSW 4.6 mph - N/A   Overcast
6:56 AM 24.1 °F 18.2 °F 21.0 °F 88% 30.18 in 9.0 mi South 4.6 mph - N/A   Overcast
7:56 AM 23.0 °F 17.0 °F 19.9 °F 88% 30.17 in 7.0 mi South 4.6 mph - N/A   Overcast
8:56 AM 23.0 °F 15.8 °F 21.0 °F 92% 30.18 in 7.0 mi South 5.8 mph - N/A   Overcast
9:56 AM 24.1 °F 17.0 °F 21.0 °F 88% 30.17 in 6.0 mi SSE 5.8 mph - N/A   Overcast
10:56 AM 25.0 °F 16.3 °F 21.9 °F 88% 30.20 in 6.0 mi SW 8.1 mph - N/A   Overcast
11:56 AM 26.1 °F - 21.9 °F 84% 30.20 in 6.0 mi North - - N/A   Overcast
12:56 PM 27.0 °F - 21.9 °F 81% 30.16 in - Calm Calm - N/A   Overcast
1:56 PM 26.1 °F - 21.9 °F 84% 30.14 in 5.0 mi Calm Calm - N/A   Overcast
2:56 PM 26.1 °F 19.4 °F 21.0 °F 81% 30.07 in 5.0 mi East 5.8 mph - N/A   Haze
3:28 PM 26.6 °F 19.1 °F 21.2 °F 80% 30.03 in 5.0 mi ESE 6.9 mph - N/A   Haze
3:56 PM 24.1 °F 19.7 °F 19.0 °F 81% 30.10 in 4.0 mi South 3.5 mph - N/A   Haze
4:56 PM 23.0 °F - 19.0 °F 85% 30.06 in 4.0 mi Calm Calm - N/A   Mostly Cloudy
5:56 PM 16.0 °F - 16.0 °F 100% 30.06 in 4.0 mi Calm Calm - N/A   Partly Cloudy
6:42 PM 12.2 °F - 12.2 °F 100% 30.01 in 2.0 mi Calm Calm - N/A   Clear
6:56 PM 16.0 °F - 12.9 °F 88% 30.06 in 2.5 mi Calm Calm - N/A   Clear
7:17 PM 14.0 °F - 12.2 °F 93% 30.01 in 1.2 mi Calm Calm - N/A   Clear
7:25 PM 12.2 °F - 10.4 °F 92% 30.00 in 1.0 mi Calm Calm - N/A   Partly Cloudy
7:56 PM 14.0 °F - 12.9 °F 95% 30.05 in 1.5 mi Calm Calm - N/A   Overcast
8:03 PM 15.8 °F - 15.8 °F 100% 29.99 in 3.0 mi Calm Calm - N/A   Overcast
8:34 PM 17.6 °F - 15.8 °F 93% 29.97 in 2.5 mi Calm Calm - N/A   Mostly Cloudy
8:42 PM 17.6 °F - 15.8 °F 93% 29.97 in 4.0 mi Calm Calm - N/A   Scattered Clouds
8:56 PM 18.0 °F - 15.1 °F 88% 30.02 in 4.0 mi Calm Calm - N/A   Mostly Cloudy
9:56 PM 21.0 °F - 18.0 °F 88% 30.00 in 5.0 mi Calm Calm - N/A   Mostly Cloudy
10:56 PM 19.9 °F 14.9 °F 16.0 °F 85% 29.96 in 5.0 mi ENE 3.5 mph - N/A   Partly Cloudy
11:56 PM 25.0 °F 18.1 °F 19.9 °F 81% 29.91 in 7.0 mi ENE 5.8 mph - N/A   Overcast